User: anonymous   Login
Location: Buttermere
(51.3333°N, 1.5167°W)
Time: 10:06:38
(UTC+00:00)
Language:

SL-14 R/B - Orbit

View from above orbital plane
View from above orbital plane
View from above satellite
View from above satellite

Ground track
Ground track

The orbit data is extracted from the following two-line orbital elements,

1 33505U 09003B   20336.33967809  .00001128  00000-0  67114-4 0  9992
2 33505  82.3880  66.0641 0027523 161.0841 199.1417 15.09944522651397
Epoch (UTC): 01 December 2020 08:09:08
Eccentricity: 0.0027523
inclination: 82.3880°
perigee height: 517 km
apogee height: 555 km
right ascension of ascending node: 66.0641°
argument of perigee: 161.0841°
revolutions per day: 15.09944522
mean anomaly at epoch: 199.1417°
orbit number at epoch: 65139

The dashed part of the orbit path shows where the satellite is in the earth's shadow,  

DLR